www.pogodaiklimat.ru

Погода и климат >> Архив погоды >> Латвия >> Приекули


ПОГОДА в Приекули

  • Прогноз погоды в Приекули
  • Монитор погоды в Приекули

АРХИВ ПОГОДЫ в Приекули

Время (UTC), дата Ветер
(напр.,м/с)
 
Видим.   Явления Облачность Т
(С)
Тd
(С)
f
(%)
Тe
(С)
Тes
(С)
Комфортность P
(гПа)
Po
(гПа)
Тmin
(С)
Tmax
(С)
R
(мм)
R24
(мм)
S
(см)
15 9.06 СЗ 4 н/о н/о +20.8 +6.6 40 +22 +22 комфорт 1038.6 1009.9
18 9.06 З 2 н/о н/о +19.4 +8.8 50 +21 +21 комфорт 1038.5 1009.6
21 9.06 ЮЗ 2 н/о н/о +17.0 +8.1 56 +17 +17 1039.3 1010.2
00 10.06 ЮЗ 2 н/о н/о +13.4 +8.0 70 +13 +13 1039.7 1010.2
03 10.06 ЮЗ 2 н/о н/о +12.9 +9.1 78 +12 +12 1039.9 1010.3
06 10.06 ЮЗ 3 н/о н/о +17.1 +6.3 49 +17 +17 1040.0 1010.8
09 10.06 ЮЗ 3 н/о н/о +20.5 +5.7 38 +22 +22 комфорт 1039.2 1010.4
12 10.06 Ю 4 н/о н/о +22.8 +8.0 39 +24 +24 комфорт 1037.5 1009.0
18 10.06 СЗ 1 н/о н/о +20.3 +11.6 57 +23 +23 комфорт 1036.4 1007.6
00 11.06 В 1 н/о н/о +18.1 +8.3 53 +19 +19 1036.6 1007.7
03 11.06 В 2 н/о н/о +15.9 +10.0 68 +16 +16 1036.5 1007.3
06 11.06 СВ 2 н/о н/о +17.7 +11.6 67 +18 +18 1035.8 1006.9
09 11.06 В 2 н/о н/о +22.5 +14.2 59 +26 +26 жарко 1034.9 1006.4
12 11.06 В 2 н/о н/о +24.6 +17.0 63 +28 +28 душно 1032.8 1004.6
15 11.06 В 2 н/о н/о +26.8 +15.6 50 +30 +30 душно 1030.9 1003.0
18 11.06 СВ 1 н/о н/о +24.3 +16.7 63 +28 +28 душно 1030.3 1002.1
21 11.06 СВ 3 н/о н/о +16.8 +16.8 100 +17 +17 1032.2 1003.2
00 12.06 В 1 н/о н/о +16.7 +16.6 99 +18 +18 1031.4 1002.5
03 12.06 СВ 2 н/о н/о +16.4 +16.4 100 +16 +16 1032.0 1003.0
06 12.06 СВ 3 н/о н/о +15.6 +15.6 100 +15 +15 1033.1 1004.0
09 12.06 В 4 н/о н/о +18.0 +16.2 89 +18 +18 1033.5 1004.6
12 12.06 В 4 н/о н/о +20.7 +16.4 76 +24 +24 комфорт 1033.2 1004.6
15 12.06 В 3 н/о н/о +21.7 +16.0 70 +25 +25 комфорт 1032.5 1004.0
18 12.06 В 3 н/о н/о +20.3 +15.2 73 +23 +23 комфорт 1032.6 1004.1
21 12.06 н/о н/о 1004.3
00 13.06 В 5 н/о н/о +17.4 +14.8 85 +17 +17 1032.3 1003.4
03 13.06 В 4-7
{7}
20 км н/о +17.5 +15.6 89 +17 +17 1031.3 1002.4
06 13.06 ЮВ 4-7
{9}
20 км н/о +20.4 +17.5 83 +24 +24 комфорт 1017.1 1002.7
09 13.06 ЮВ 4-7
{7}
20 км н/о +24.3 +18.9 72 +29 +29 душно 1031.0 1002.9
12 13.06 В 4-7
{10}
20 км н/о +27.7 +19.9 63 +34 +34 очень
душно
1015.8 1001.8
15 13.06 ЮВ 5-11
{11}
20 км н/о +27.3 +19.0 61 +33 +33 очень
душно
1014.2 1000.2 0.1
18 13.06 С 2-5
{7}
20 км н/о +21.4 +18.0 81 +26 +26 душно 1030.2 1001.8
21 13.06 СВ 2-4
{4}
10 км н/о +18.0 +17.4 96 +19 +19 1016.2 1001.7
00 14.06 Ю 2-3
{3}
7000 м н/о +18.0 +17.8 99 +19 +19 1016.8 1002.3
03 14.06 ЮЗ 2-3
{4}
700 м н/о +17.3 +17.2 99 +18 +18 1016.5 1002.0
06 14.06 СЗ 2-3
{4}
10 км н/о +18.2 +17.3 94 +19 +19 1017.1 1002.6
09 14.06 З 4-5
{6}
20 км н/о +20.5 +16.7 79 +24 +24 комфорт 1017.5 1003.1
12 14.06 З 3-4
{6}
17 км н/о +17.7 +15.6 88 +18 +18 1019.3 1004.8
15 14.06 СЗ 6-9
{9}
20 км н/о +19.8 +13.4 67 +21 +21 комфорт 1019.4 1005.0
18 14.06 З 4-5
{7}
20 км н/о +17.6 +12.8 73 +17 +17 1019.1 1004.6
21 14.06 З 4-5
{6}
16 км н/о +13.7 +12.7 94 +12 +12 1020.8 1006.0
00 15.06 СЗ 2-4
{4}
19 км н/о +13.0 +11.8 92 +12 +12 1020.4 1005.6
03 15.06 СЗ 2-3
{5}
20 км н/о +12.9 +11.4 91 +12 +12 1020.5 1005.7
06 15.06 СЗ 2-3
{4}
20 км н/о +16.1 +12.8 81 +16 +16 1020.4 1005.8
09 15.06 З 4-5
{6}
20 км н/о +19.8 +13.4 67 +22 +22 комфорт 1019.8 1005.4
12 15.06 СЗ 4-6
{7}
20 км н/о +21.5 +12.0 55 +24 +24 комфорт 1019.2 1004.8
15 15.06 СЗ 4-5
{7}
20 км н/о +21.8 +12.0 54 +24 +24 комфорт 1018.6 1004.3
18 15.06 СЗ 3-4
{5}
20 км н/о +20.0 +11.9 60 +22 +22 комфорт 1032.2 1003.5
21 15.06 ЮЗ 1-1
{2}
20 км н/о +14.8 +11.9 83 +15 +15 1017.6 1002.9
00 16.06 ЮВ 2-2
{2}
20 км н/о +11.9 +10.9 94 +11 +11 1017.2 1002.4
03 16.06 ЮВ 1-1
{2}
20 км н/о +13.3 +11.8 91 +13 +13 1016.8 1002.1
06 16.06 Ю 3-4
{4}
20 км н/о +19.4 +12.3 63 +21 +21 комфорт 1016.7 1002.3
09 16.06 Ю 2-3
{4}
20 км н/о +21.7 +9.8 47 +23 +23 комфорт 1015.7 1001.4
12 16.06 ЮЗ 1-2
{2}
20 км н/о +22.7 +13.1 55 +26 +26 жарко 1015.6 1001.4

 

Местоположение метеостанции Приекули (Латвия): широта 57.32 долгота 25.33 высота над уровнем моря 122 м.

В архиве по умолчанию представлена погода в Приекули за последнюю неделю. Архивные данные за месяц целиком и за предыдущие месяцы, начиная с января 2011 года, Вы можете получить, выбрав интересующий диапазон дат из раскрывающегося списка и нажав кнопку "Ввод!".


*Определитесь, кто Вы:
робот инопланетянин человек

Внимание! Время в таблицах - всемирное. Для получения местного времени необходимо прибавить поправку, которая равна 2 ч.

Смотрите также архив погоды в соседних городах и на ближайших метеорологических станциях:

Погода в Зозени (Латвия) (41 км)
Погода в Скульте (Латвия) (55 км)
Погода в Руйиене (Латвия) (65 км)
Погода в Валге (Эстония) (66 км)
Погода в Скриверу (Латвия) (76 км)
Погода в Мадоне (Латвия) (76 км)
Погода в Айнажи (Латвия) (84 км)
Погода в Гулбене (Латвия) (86 км)
Погода в Риге (Латвия) (86 км)
Погода в Зилани (Латвия) (96 км)

Пояснения к столбцам:

Ветер - указаны скорость ветра в м/с - средняя за 10 мин, порывы в срок и между сроками (в фигурных скобках) и направление, откуда дует ветер: С - северный, СВ - северо-восточный, В - восточный, ЮВ - юго-восточный, Ю - южный, ЮЗ - юго-западный, З - западный, СЗ - северо-западный.
Видимость - горизонтальная дальность видимости в метрах или километрах. При видимости от 1 до 10 км при отсутствии осадков обычно наблюдается дымка, при ухудшении видимости до 1 км и менее - туман. В сухую погоду видимость может ухудшаться дымом, пылью или мглою.
Явления - указаны атмосферные явления, наблюдавшиеся в срок или в последний час перед сроком; фигурными скобками обозначены явления, наблюдавшиеся между сроками (за 1-3 часа до срока); квадратными скобками обозначены град или гололедные отложения с указанием их диаметра в мм.
Облачность - указаны через наклонную черту общая и нижняя облачность в баллах и высота нижней границы облаков в метрах; квадратными скобками обозначены формы облаков: Ci - перистые, Cs - перисто-слоистые, Cc - перисто-кучевые, Ac - высококучевые, As - высокослоистые, Sc - слоисто-кучевые, Ns - слоисто-дождевые, Cu - кучевые, Cb - кучево-дождевые. Подробнее классификацию облаков см. в Атласе облаков (PDF).
T - Температура воздуха - температура, измеренная на высоте 2 м над землей.
Td - Температура точки росы - температура, при понижении до которой содержащийся в воздухе водяной пар достигнет насыщения.
f - Относительная влажность воздуха - влажноcть воздуха, измеренная на высоте 2 м над землей.
Te - Эффективная температура - температура, которую ощущает одетый по сезону человек в тени. Характеристика душности погоды. При расчете учитывается влияние влажности воздуха и скорости ветра на теплоощущения человека.
Tes - Эффективная температура на солнце - температура, которую ощущает человек, с поправкой на солнечный нагрев. Характеристика знойности погоды. Зависит от высоты солнца над горизонтом, облачности и скорости ветра. Ночью, в пасмурную погоду, а также при ветре 12 м/с и более поправка равна нулю.
P - Атмосферное давление - приведенное к уровню моря атмосферное давление.
Po - Атмосферное давление - измеренное на уровне метеостанции атмосферное давление.
Tmin - Минимальная температура - минимум температуры воздуха на высоте 2 м над землей.
Tmax - Максимальная температура - максимум температуры воздуха на высоте 2 м над землей.
R - Количество осадков - Количество выпавших осадков за период времени, мм. При наведении курсора мыши на число - период времени, за который выпало указанное количество осадков.
R24 - Количество осадков - Количество выпавших осадков за 24 часа, мм.
S - Снежный покров - Высота снежного покрова, см. При наведении курсора мыши на число - состояние снежного покрова и степень покрытия местности в баллах.